STARLINK-5741, 55582

Orbit data source: Space-Track

STARLINK-5741, 55582 is a payload satellite owned by SpaceX/Seattle (US) in LEO that was launched on Sun, 12 Feb 2023 UTC via an FALCON 9 launch vehicle from the Air Force Eastern Test Range (AFETR). Payload-class satellites include a variety of spacecraft equipped with specific instruments for various scientific and technological missions. These include communications satellites like Starlink; space stations such as the ISS; scientific satellites like the Hubble; Earth observation satellites from companies like Planet Labs, Umbra, and HawkEye 360; GPS; miniature CubeSats for education and research; and military/defense satellites.

Loading next visibility...
Identifier
55582, 2023-020P
Orbit
LEO
Country
Flag of USUS
Related business
Manufacturer
SpaceX/Seattle
Mission
Operational Commercial Communications
Bus & Motor
STARLINK, Unknown motor
Mass
305 kg wet, ~290 kg dry
Launch date (UTC)
2023-02-12 (3 years ago)
Launch vehicle
FALCON 9
Launch site
Air Force Eastern Test Range (AFETR)
Object type
Payload
Rocket body
Debris
Shape & HBR
Box + 1 Pan, 10.1 m
Radar Cross Section
13.562 m², Large (>1 m²)

Expand to show TLE details & history
Last TLE update: 15 hours ago

TLE from 15 hours ago
0 STARLINK-5741
1 55582U 23020P   25340.53614394 -.00000197  00000-0  47231-6 0  9992
2 55582  43.0027 138.0936 0001364 266.8720  93.1966 15.02534805155051
Epoch: 2025-12-06T12:52Z
TLE epoch observation values (Epoch: 2025-12-06T12:52:02.836Z)
Latitude
-0.00003°
Longitude
-130.48073°
Altitude
558.914 km
Speed
7.584 km/s
True Right ascension
09h 12m 22s
True Declination
0° 00' 00"
Sunlit
Object was in partial shadow at epoch
Visualization orbit readout
Latitude
Unknown
Longitude
Unknown
Altitude
Unknown
Speed
Unknown
Apparent Right ascension
Unknown
Apparent Declination
Unknown
Sunlit
N/A
Visualization observer readout
Local Sidereal Time
02:09:38
Azimuth
Unknown
Elevation
Unknown
Doppler factor
Unknown
Orbital elements
Apogee altitude
561.953 km
Perigee altitude
560.06 km
Semi-major axis
6,939.144 km
Eccentricity
0.00014
Inclination
43.0027°
RAAN
138.0936°
Arg. of periapsis
266.872°
True anomaly
93.21221°
Mean anomaly
93.1966°
Eccentric anomaly
93.2044°
Mean motion
3.75478 °/min
Orbital period
95.88 mins
BSTAR
4.7231e-7
Loading maneuver chart data...
Computing Atmospheric mass density...
Loading historical data...
Loading historical data...
Loading historical data...
Loading historical data...
Loading historical data...
Loading historical data...
Loading historical data...

Documentation

Showing up to 5 results
|